Regional Weather Roundup
Issued by NWS

Home | Current Version | Previous Version | Graphics & Text | Print | Product List | Glossary On
Versions: 1 2 3 4 5 6 7 8 9 10 11 12 13 14 15 16 17 18 19 20 21 22 23 24 25 26 27 28 29 30 31 32 33 34 35 36 37 38 39 40 41 42 43 44 45 46 47 48 49 50
000
ASUS43 KOAX 040202
RWRNE

WEATHER ROUNDUP FOR NEBRASKA
NATIONAL WEATHER SERVICE OMAHA NE
900 PM CDT THU SEP 03 2015

NOTES: SATELLITE DATA IS BEING USED TO AUGMENT CLOUD COVER ABOVE
       12000 FEET.
       "FAIR" INDICATES FEW OR NO CLOUDS BELOW 12,000 FEET WITH NO
       SIGNIFICANT WEATHER AND/OR OBSTRUCTIONS TO VISIBILITY.

  * THESE STATIONS DO NOT REPORT WEATHER SUCH AS RAIN...SNOW OR FOG.

NEZ001>004-019>022-054>056-040300-
NEBRASKA PANHANDLE

CITY           SKY/WX    TMP DP  RH WIND       PRES   REMARKS
SCOTTSBLUFF    CLOUDY    79  48  33 VRB3      29.91R
ALLIANCE       CLOUDY    76  50  40 NW9       29.88R
CHADRON        CLOUDY    82  46  28 CALM      29.80R
KIMBALL        CLOUDY    69  50  49 W17G23    29.94R
SIDNEY         CLOUDY    76  48  37 N9        29.90R
$$

NEZ057>060-069>072-079>082-040300-
SOUTHWEST NEBRASKA

CITY           SKY/WX    TMP DP  RH WIND       PRES   REMARKS
NORTH PLATTE   CLOUDY    78  67  68 E7        29.76R
IMPERIAL       CLOUDY    82  54  37 W3        29.77S
LEXINGTON      CLOUDY    84  62  47 S9        29.77R
MCCOOK         CLOUDY    87  58  37 S12       29.75R
$$

NEZ005>010-023>029-035>040-094-040300-
NORTH CENTRAL NEBRASKA

CITY           SKY/WX    TMP DP  RH WIND       PRES   REMARKS
VALENTINE      CLOUDY    82  54  37 NW3       29.77F
AINSWORTH      CLOUDY    80  64  59 S6        29.78R
BROKEN BOW     MOCLDY    81  65  58 E7        29.77R
ORD            PTCLDY    78  69  73 E6        29.75R
$$

NEZ041-046>049-061>064-073>077-083>087-040300-
SOUTH CENTRAL NEBRASKA

CITY           SKY/WX    TMP DP  RH WIND       PRES   REMARKS
GRAND ISLAND   MOCLDY    82  65  56 SE14      29.79R
AURORA         PTCLDY    80  65  61 S10       29.79R
HASTINGS       MOCLDY    85  62  46 S14       29.79R
HEBRON         MOCLDY    81  63  54 SE6       29.81R
HOLDREGE       CLOUDY    82  57  42 S8        29.79R
KEARNEY *      CLOUDY    81  61  50 SE12      29.78R
YORK           PTCLDY    81  66  61 S9        29.80R
$$

NEZ011>018-030>034-042>045-040300-
NORTHEAST NEBRASKA

CITY           SKY/WX    TMP DP  RH WIND       PRES   REMARKS
NORFOLK        CLEAR     79  71  76 SE8       29.78R
ALBION         CLEAR     79  68  69 SE6       29.79R
BLAIR          PTCLDY    82  69  65 S9        29.83R
COLUMBUS *     CLEAR     81  66  61 SE6       29.79R
FREMONT        PTCLDY    82  71  67 SE10      29.82R
TEKAMAH        PTCLDY    78  73  84 SE8       29.81R
WAYNE          CLEAR     80  73  80 SE9       29.80R
$$

NEZ050>053-065>068-078-088>093-040300-
SOUTHEAST NEBRASKA

CITY           SKY/WX    TMP DP  RH WIND       PRES   REMARKS
LINCOLN        PTCLDY    83  67  58 S10       29.82R
OMAHA EPPLEY   PTCLDY    83  71  67 SE14      29.82R
BEATRICE       PTCLDY    82  67  59 SE7       29.83R
FALLS CITY     CLEAR     78  69  73 S9        29.85R
NEBRASKA CITY  CLEAR     78  65  65 S8        29.84R
PLATTSMOUTH    CLEAR     80  68  66 SE8       29.84R
$$

NEZ044-045-051>053-067-040300-
OMAHA AREA

CITY           SKY/WX    TMP DP  RH WIND       PRES   REMARKS
OMAHA EPPLEY   PTCLDY    83  71  67 SE14      29.82R
BLAIR          PTCLDY    82  69  65 S9        29.83R
FREMONT        PTCLDY    82  71  67 SE10      29.82R
MILLARD        CLEAR     81  72  73 SE5       29.82R
OFFUTT AFB     CLEAR     79  71  75 SE8       29.82R
PLATTSMOUTH    CLEAR     80  68  66 SE8       29.84R
WAHOO          FAIR      78  72  83 SE7       29.81R
$$




USA.gov is the U.S. government's official web portal to all federal, state and local government web resources and services.